When you browse on this site, cookies collect data to enhance your experience and personalize the content and advertising you see.
Visit our Privacy Policy to learn more. By continuing to use the site, you agree to this use of cookies and data.
  • In Österreich
  • Länderverzeichnis
  • Für 7 Tage
  • Wassertemperatur
  • Satellitenkarten
  • Wetterkarte
  • News
  • Widgets
  • user-avatar
    Anmelden

    Stündliche Wetter Znamenka

    Heute, 22 Mai, Mittwoch

    Zeit Temperatur Niederschläge Wind Luftdruck Luftfeuchtigkeit
    00:00 +15°C° 0 mm 2 m/S 745 mmHg 97%
    01:00 +14°C° 0 mm 2 m/S 745 mmHg 97%
    02:00 +13°C° 0 mm 2 m/S 745 mmHg 97%
    03:00 +13°C° 0 mm 2 m/S 745 mmHg 97%
    04:00 +13°C° 0 mm 1 m/S 745 mmHg 97%
    05:00 +13°C° 0 mm 1 m/S 746 mmHg 97%
    06:00 +14°C° 0 mm 1 m/S 746 mmHg 89%
    07:00 +16°C° 0 mm 1 m/S 746 mmHg 81%
    08:00 +18°C° 0 mm 2 m/S 746 mmHg 73%
    09:00 +19°C° 0 mm 2 m/S 746 mmHg 65%
    10:00 +21°C° 0 mm 2 m/S 745 mmHg 57%
    11:00 +23°C° 0 mm 2 m/S 745 mmHg 49%
    12:00 +24°C° 0 mm 2 m/S 745 mmHg 48%
    13:00 +24°C° 0 mm 2 m/S 745 mmHg 47%
    14:00 +24°C° 0 mm 1 m/S 745 mmHg 46%
    15:00 +24°C° 0.1 mm 1 m/S 745 mmHg 47%
    16:00 +24°C° 0.1 mm 1 m/S 744 mmHg 48%
    17:00 +24°C° 0.1 mm 1 m/S 744 mmHg 49%
    18:00 +22°C° 0.2 mm 1 m/S 744 mmHg 60%
    19:00 +20°C° 0.2 mm 1 m/S 744 mmHg 70%
    20:00 +18°C° 0.2 mm 1 m/S 744 mmHg 80%
    21:00 +16°C° 0 mm 1 m/S 744 mmHg 82%
    22:00 +14°C° 0 mm 0 m/S 744 mmHg 84%
    23:00 +14°C° 0 mm 0 m/S 745 mmHg 87%

    Morgen, 23 Mai, Donnerstag

    Zeit Temperatur Niederschläge Wind Luftdruck Luftfeuchtigkeit
    00:00 +13°C° 0 mm 0 m/S 745 mmHg 87%
    01:00 +13°C° 0 mm 0 m/S 745 mmHg 88%
    02:00 +13°C° 0 mm 0 m/S 745 mmHg 89%
    03:00 +13°C° 0 mm 0 m/S 745 mmHg 89%
    04:00 +13°C° 0 mm 0 m/S 745 mmHg 89%
    05:00 +13°C° 0 mm 0 m/S 745 mmHg 89%
    06:00 +15°C° 0 mm 0 m/S 745 mmHg 83%
    07:00 +17°C° 0 mm 0 m/S 745 mmHg 76%
    08:00 +21°C° 0 mm 1 m/S 745 mmHg 70%
    09:00 +20°C° 0 mm 0 m/S 745 mmHg 63%
    10:00 +22°C° 0 mm 0 m/S 745 mmHg 56%
    11:00 +24°C° 0 mm 0 m/S 745 mmHg 49%
    12:00 +25°C° 0 mm 0 m/S 745 mmHg 46%
    13:00 +27°C° 0 mm 1 m/S 745 mmHg 43%
    14:00 +27°C° 0 mm 1 m/S 744 mmHg 40%
    15:00 +27°C° 0 mm 1 m/S 744 mmHg 42%
    16:00 +26°C° 0 mm 1 m/S 744 mmHg 44%
    17:00 +26°C° 0 mm 1 m/S 744 mmHg 46%
    18:00 +24°C° 0 mm 1 m/S 744 mmHg 54%
    19:00 +22°C° 0 mm 1 m/S 744 mmHg 62%
    20:00 +20°C° 0 mm 1 m/S 744 mmHg 69%
    21:00 +19°C° 0 mm 1 m/S 744 mmHg 74%
    22:00 +18°C° 0 mm 1 m/S 745 mmHg 79%
    23:00 +15°C° 0 mm 0 m/S 745 mmHg 83%

    übermorgen, 24 Mai, Freitag

    Zeit Temperatur Niederschläge Wind Luftdruck Luftfeuchtigkeit
    00:00 +15°C° 0 mm 0 m/S 745 mmHg 85%
    01:00 +16°C° 0 mm 1 m/S 745 mmHg 87%
    02:00 +15°C° 0 mm 1 m/S 745 mmHg 88%
    03:00 +15°C° 0 mm 1 m/S 745 mmHg 89%
    04:00 +15°C° 0 mm 1 m/S 745 mmHg 89%
    05:00 +15°C° 0 mm 1 m/S 745 mmHg 90%
    06:00 +18°C° 0 mm 1 m/S 745 mmHg 82%
    07:00 +20°C° 0 mm 1 m/S 745 mmHg 75%
    08:00 +23°C° 0 mm 1 m/S 746 mmHg 67%
    09:00 +23°C° 0.4 mm 1 m/S 745 mmHg 65%
    10:00 +24°C° 0.4 mm 1 m/S 745 mmHg 63%
    11:00 +25°C° 0.4 mm 2 m/S 745 mmHg 60%
    12:00 +25°C° 1 mm 2 m/S 745 mmHg 63%
    13:00 +25°C° 1 mm 2 m/S 745 mmHg 65%
    14:00 +24°C° 1 mm 2 m/S 745 mmHg 68%
    15:00 +24°C° 1.1 mm 2 m/S 745 mmHg 71%
    16:00 +23°C° 1.1 mm 2 m/S 744 mmHg 74%
    17:00 +23°C° 1.1 mm 2 m/S 744 mmHg 77%
    18:00 +20°C° 0.5 mm 2 m/S 744 mmHg 81%
    19:00 +19°C° 0.5 mm 2 m/S 744 mmHg 86%
    20:00 +18°C° 0.5 mm 2 m/S 744 mmHg 91%
    21:00 +17°C° 0.1 mm 2 m/S 744 mmHg 92%
    22:00 +16°C° 0.1 mm 2 m/S 744 mmHg 93%
    23:00 +15°C° 0.1 mm 2 m/S 744 mmHg 94%

    25 Mai, Samstag

    Zeit Temperatur Niederschläge Wind Luftdruck Luftfeuchtigkeit
    00:00 +15°C° 0 mm 2 m/S 744 mmHg 96%
    01:00 +14°C° 0 mm 2 m/S 744 mmHg 97%
    02:00 +14°C° 0 mm 2 m/S 744 mmHg 98%
    03:00 +14°C° 0.4 mm 2 m/S 744 mmHg 97%
    04:00 +13°C° 0.4 mm 3 m/S 744 mmHg 96%
    05:00 +13°C° 0.4 mm 3 m/S 744 mmHg 95%
    06:00 +13°C° 0.1 mm 3 m/S 744 mmHg 91%
    07:00 +14°C° 0.1 mm 3 m/S 745 mmHg 87%
    08:00 +14°C° 0.1 mm 4 m/S 745 mmHg 82%
    09:00 +17°C° 0 mm 4 m/S 745 mmHg 69%
    10:00 +19°C° 0 mm 5 m/S 745 mmHg 56%
    11:00 +20°C° 0 mm 5 m/S 745 mmHg 43%
    12:00 +21°C° 0 mm 5 m/S 745 mmHg 43%
    13:00 +21°C° 0 mm 4 m/S 745 mmHg 42%
    14:00 +22°C° 0 mm 4 m/S 744 mmHg 42%
    15:00 +22°C° 0 mm 4 m/S 744 mmHg 46%
    16:00 +22°C° 0 mm 4 m/S 744 mmHg 50%
    17:00 +22°C° 0 mm 4 m/S 744 mmHg 53%
    18:00 +20°C° 0.4 mm 3 m/S 744 mmHg 65%
    19:00 +18°C° 0.4 mm 2 m/S 744 mmHg 77%
    20:00 +16°C° 0.4 mm 2 m/S 744 mmHg 88%
    21:00 +15°C° 0 mm 2 m/S 744 mmHg 90%
    22:00 +14°C° 0 mm 2 m/S 744 mmHg 92%
    23:00 +14°C° 0 mm 2 m/S 745 mmHg 94%

    26 Mai, Sonntag

    Zeit Temperatur Niederschläge Wind Luftdruck Luftfeuchtigkeit
    00:00 +13°C° 0 mm 2 m/S 745 mmHg 95%
    01:00 +12°C° 0 mm 3 m/S 745 mmHg 96%
    02:00 +11°C° 0 mm 3 m/S 745 mmHg 96%
    03:00 +11°C° 0 mm 3 m/S 745 mmHg 96%
    04:00 +10°C° 0 mm 2 m/S 745 mmHg 96%
    05:00 +10°C° 0 mm 2 m/S 745 mmHg 96%
    06:00 +11°C° 0.1 mm 3 m/S 745 mmHg 91%
    07:00 +12°C° 0.1 mm 3 m/S 745 mmHg 87%
    08:00 +13°C° 0.1 mm 3 m/S 745 mmHg 82%
    09:00 +14°C° 0.1 mm 4 m/S 745 mmHg 75%
    10:00 +15°C° 0.1 mm 4 m/S 745 mmHg 68%
    11:00 +16°C° 0.1 mm 5 m/S 745 mmHg 60%
    12:00 +16°C° 0.1 mm 5 m/S 745 mmHg 62%
    13:00 +17°C° 0.1 mm 4 m/S 744 mmHg 64%
    14:00 +15°C° 0.1 mm 4 m/S 744 mmHg 65%
    15:00 +16°C° 0.1 mm 5 m/S 744 mmHg 64%
    16:00 +16°C° 0.1 mm 5 m/S 744 mmHg 63%
    17:00 +16°C° 0.1 mm 5 m/S 744 mmHg 61%
    18:00 +15°C° 0.1 mm 5 m/S 744 mmHg 67%
    19:00 +14°C° 0.1 mm 4 m/S 744 mmHg 73%
    20:00 +13°C° 0.1 mm 3 m/S 744 mmHg 79%
    21:00 +12°C° 0 mm 3 m/S 744 mmHg 79%
    22:00 +12°C° 0 mm 3 m/S 744 mmHg 80%
    23:00 +11°C° 0 mm 3 m/S 744 mmHg 81%

    27 Mai, Montag

    Zeit Temperatur Niederschläge Wind Luftdruck Luftfeuchtigkeit
    00:00 +11°C° 0 mm 4 m/S 744 mmHg 82%
    01:00 +11°C° 0 mm 4 m/S 744 mmHg 82%
    02:00 +11°C° 0 mm 4 m/S 744 mmHg 83%
    03:00 +10°C° 0.1 mm 4 m/S 745 mmHg 84%
    04:00 +10°C° 0.1 mm 4 m/S 745 mmHg 85%
    05:00 +8°C° 0.1 mm 4 m/S 745 mmHg 86%
    06:00 +9°C° 0 mm 5 m/S 745 mmHg 78%
    07:00 +10°C° 0 mm 5 m/S 745 mmHg 69%
    08:00 +11°C° 0 mm 6 m/S 746 mmHg 60%
    09:00 +13°C° 0 mm 6 m/S 746 mmHg 57%
    10:00 +14°C° 0 mm 6 m/S 746 mmHg 54%
    11:00 +15°C° 0 mm 6 m/S 746 mmHg 50%
    12:00 +16°C° 0 mm 6 m/S 746 mmHg 50%
    13:00 +17°C° 0 mm 6 m/S 746 mmHg 50%
    14:00 +19°C° 0 mm 6 m/S 747 mmHg 49%
    15:00 +19°C° 0 mm 5 m/S 747 mmHg 50%
    16:00 +19°C° 0 mm 5 m/S 747 mmHg 50%
    17:00 +19°C° 0 mm 4 m/S 747 mmHg 51%
    18:00 +18°C° 0 mm 3 m/S 747 mmHg 58%
    19:00 +16°C° 0 mm 2 m/S 747 mmHg 65%
    20:00 +15°C° 0 mm 1 m/S 747 mmHg 73%
    21:00 +14°C° 0 mm 2 m/S 747 mmHg 77%
    22:00 +14°C° 0 mm 2 m/S 747 mmHg 81%
    23:00 +13°C° 0 mm 3 m/S 747 mmHg 85%
    Mehr zeigen